Regional Weather Roundup
Issued by NWS Wakefield, VA

Home | Current Version | Previous Version | Text Only | Print | Product List | Glossary On
Versions: 1 2 3 4 5 6 7 8 9 10 11 12 13 14 15 16 17 18 19 20 21 22 23 24 25 26 27 28 29 30 31 32 33 34 35 36 37 38 39 40 41 42 43 44 45 46 47 48 49 50
000
ASUS41 KAKQ 030914
RWRAKQ

REGIONAL WEATHER ROUNDUP
NATIONAL WEATHER SERVICE WAKEFIELD VA
500 AM EDT SUN MAY 03 2015

Note: "fair" indicates few or no clouds below 12,000 feet with no
significant weather and/or obstructions to visibility. * = Denotes
station may not report precipitation (e.g., rain,snow,etc.),
thunder or fog.

VAZ042-051-052>054-056-031000-
NORTHERN VIRGINIA

CITY           SKY/WX    TMP DP  RH WIND       PRES   REMARKS
WASH NATIONAL  MOCLDY    57  49  74 SW5       30.05R
DULLES         PTCLDY    46  42  86 CALM      30.06R
FORT BELVOIR   MOCLDY    47  46  95 CALM      30.05R
QUANTICO       MOCLDY    56  45  66 W3        30.07R
FREDERICKSBRG* PTCLDY    49  49 100 CALM      30.07R
STAFFORD*      CLOUDY    44  32  61 CALM      30.11R
WARRENTON      CLOUDY    45  45 100 CALM      30.07R
CULPEPER*      NOT AVBL
MANASSAS*      CLOUDY    45  45 100 CALM      30.07R
LEESBURG*      CLEAR     52  45  76 CALM      30.07R
WINCHESTER     CLEAR     46  39  76 CALM      30.08R
FRONT ROYAL*   FAIR      50  43  76 S6        30.08R
LURAY*         FAIR      48  45  87 S3        30.10R
$$

VAZ048-049-060>072-079>083-031000-
CENTRAL AND SOUTH CENTRAL VIRGINIA

CITY           SKY/WX    TMP DP  RH WIND       PRES   REMARKS
RICHMOND       CLEAR     57  45  64 CALM      30.08R
CHESTERFIELD*  FAIR      54  37  54 W6        30.10R
PETERSBURG*    CLEAR     56  45  67 W5        30.09R
HANOVER        CLEAR     47  46  97 CALM      30.09R
TAPPAHANNOCK*  CLEAR     54  42  65 W6        30.07R
QUINTON*       FAIR      47  46  96 CALM      30.07S
CHARLOTTSVILLE MOCLDY    48  44  86 CALM      30.09R
GORDONSVILLE*  PTSUNNY   46  44  93 SW5       30.07S
ORANGE*        CLEAR     55  41  58 CALM      30.09R
LOUISA*        PTCLDY    52  45  76 W5        30.07R
BUMPASS*       FAIR      47  44  87 CALM      30.08R
FARMVILLE*     CLOUDY    49  49 100 SW3       30.09R
CREWE*         CLOUDY    48  47  95 CALM      30.10R
FORT PICKETT*  CLOUDY    49  47  95 SW3       30.10R
CHASE CITY*    CLOUDY    51  51 100 CALM      30.11R
CLARKSVILLE*   PTSUNNY   45  45 100 CALM      30.11R
SOUTH HILL*    PTCLDY    51  47  88 W3        30.16R
LAWRENCEVILLE* FAIR      46  46  99 CALM      30.10R
EMPORIA*       FOG       43  43 100 CALM      30.11R VSB<1/4
$$

VAZ088>098-031000-
SOUTHEAST VIRGINIA

CITY           SKY/WX    TMP DP  RH WIND       PRES   REMARKS
NORFOLK        CLEAR     54  48  80 SW9       30.08R
VIRGINIA BEACH CLEAR     50  47  89 SW7       30.08R
NORFOLK NAVAL  CLEAR     57  49  74 SW7       30.09S
WEST POINT*    CLEAR     50  47  91 CALM      30.09R
SALUDA*        FAIR      48  46  93 N5        30.06S
NEWPORT NEWS   CLEAR     54  48  80 SW6       30.08S
LANGLEY AFB    CLEAR     52  49  90 W6        30.07R
FORT EUSTIS    CLEAR     52  52 100 SW2       30.06S
WILLIAMSBURG*  CLEAR     52  50  93 CALM      30.09S
HR EXEC AP*    FAIR      45  41  87 CALM      30.11R
FRANKLIN*      CLEAR     47  46  97 CALM      30.10S
WAKEFIELD      CLEAR     48  45  89 CALM      30.09R
$$

VAZ020-022-025-037-045-031000-
WEST CENTRAL AND SOUTHWEST VIRGINIA

CITY           SKY/WX    TMP DP  RH WIND       PRES   REMARKS
STAUNTON*      MOCLDY    47  43  85 CALM      30.13S
WAYNESBORO*    CLOUDY    45  42  91 SW3       30.12S
HOT SPRINGS VA MOCLDY    53  31  43 NW5       30.16R
LYNCHBURG      CLEAR     47  46  97 CALM      30.13R
DANVILLE       CLEAR     47  45  93 SW3       30.12R
SOUTH BOSTON*  CLOUDY    47  46  95 CALM      30.12R
MARTINSVILLE   CLEAR     39  39 100 CALM      30.15S FOG
ROANOKE        CLEAR     47  41  80 CALM      30.15R
BLACKSBURG     CLEAR     39  38  95 CALM      30.18S
DUBLIN*        CLEAR     43  39  85 CALM      30.17R
MARION*        CLEAR     39  36  89 CALM      30.19R
HILLSVILLE*    CLEAR     46  37  71 SW6       30.16S
RICHLANDS*     FAIR      51  -7   9 CALM      30.16R
WISE*          CLEAR     54  32  43 CALM      30.16S
ABINGDON*      CLEAR     47  38  73 E3        30.16R
$$

MDZ021>025-VAZ099-100-031000-
SOUTHERN MARYLAND AND THE DELMARVA PENINSULA

CITY           SKY/WX    TMP DP  RH WIND       PRES   REMARKS
PATUXENT RIVER PTCLDY    54  46  74 W8        30.04R
BAY BRIDGE APT   N/A    N/A N/A N/A CALM      30.03R
LEONARDTOWN    PTCLDY    54  45  71 SW6       30.06S
DOVER          CLOUDY    48  48 100 SE2       29.99S
GEORGETOWN     CLEAR     46  44  93 S5        30.05R
EASTON         PTCLDY    55  55 100 SW3       30.07R
CAMBRIDGE      CLEAR     54  52  94 CALM      30.03S
SALISBURY      CLEAR     44  42  93 CALM      30.04S
OCEAN CITY     CLEAR     51  48  89 SW5       30.06R
WALLOPS ISLAND CLEAR     49  48  97 S5        30.06R
ACCOMACK*      CLEAR     48  48 100 W5        30.06S
$$

NCZ012>017-030>032-031000-
NORTH CENTRAL AND EASTERN NORTH CAROLINA

CITY           SKY/WX    TMP DP  RH WIND       PRES   REMARKS
ROANOKE RAPIDS FAIR      46  45  93 CALM      30.10R
RALEIGH        PTCLDY    47  45  93 NW5       30.13R
ELIZABETH CITY CLEAR     50  48  93 SW5       30.10R
AHOSKIE*       CLEAR     46  45  97 CALM      30.11R FOG
EDENTON*       CLEAR     56  51  85 W3        30.10S
CURRITUCK*     CLEAR     51  48  91 SW3       30.10S
KILL DEVIL HLS CLEAR     54  50  86 SW5       30.09R
MANTEO         CLEAR     54  49  83 W5        30.10S
CAPE HATTERAS  CLEAR     51  51 100 W3        30.10R
TARBORO*       FOG       45  45  97 CALM      30.12R VSB 1
GOLDSBORO      CLEAR     50 N/A N/A CALM      30.10R HAZE
WASHINGTON     CLEAR     50  49  97 SW3       30.11
GREENVILLE     CLEAR     52  52 100 CALM      30.13R
NEW BERN       CLEAR     48  46  93 CALM      30.13R FOG
WILMINGTON     CLEAR     51  49  92 CALM      30.12R FOG
$$

VAZ048-031000-
ELSEWHERE

CITY           SKY/WX    TMP DP  RH WIND       PRES   REMARKS
HARRISBURG PA  PTCLDY    51  44  77 N6        30.05R
BALTIMORE      CLEAR     51  44  77 SW5       30.03R
ANNAPOLIS      MOCLDY    57  45  64 W5        30.03R
ANDREWS AFB    MOCLDY    53  44  72 W5        30.04R
PHILADELPHIA   MOCLDY    51  43  74 E7        30.05S
HENDERSON NC   MOCLDY    48  47  94 CALM      30.12R
GREENSBORO     CLEAR     48  44  86 CALM      30.12S
ROCKY MOUNT    CLEAR     48  47  96 CALM      30.11R FOG
$$

VAZ100-031000-
MARINE

STATION/POSITION TIME  TEMP    WIND        PRES    WAVE   SWELL
                       AIR SEA DIR/SP/G            HT/PER HT/PER
                 (UTC) (F)     (DEG/KT/KT) (MB)    (FT/S) (FT/S)
BRANDYWINE LGT   0800   53 53  210/ 12/ 12 1017.1F
CAPE MAY NJ      0800   52 57  160/  5/  7 1016.8S
LEWES DE         0800   52 53  200/  2/  4 1017.1R
15NM E FENWICK I 0850   50 48              1017.3R   5/ 9
OCEAN-CITY-INLET 0800   53 54  190/  7/ 10 1017.2R
WACHAPREAGUE VA  0800   53 60  240/  3/  5 1017.8R
THOMAS POINT MD  0900   60 57  280/  8/  9 1017.6R
GOOSES REEF MD   0900   58 57                N/A     0
COVE POINT MD    0800   59     280/ 11/ 15 1017.4R
SOLOMONS ISLAND  0800      59                N/A
BISHOPS HEAD MD  0800   58 60  220/  7/  8 1016.8R
PINEY POINT MD   0800          320/  8/  9   N/A
CAMBRIDGE MD     0800   54 60  180/  2/  3 1016.7S
LEWISETTA VA     0800   58 61              1017.1R
RAPPAHANNOCK LGT 0800          210/ 10/ 11 1018.3R
YORK RVR RNG VA  0800   57     260/ 10/ 11 1017.4R
YORKTOWN VA      0800   56 59  230/ 10/ 13 1017.7R
JAMESTOWN VA     0900   54 62  250/  4/  6 1017.7R
DOMINION TERM VA 0800   57     260/  5/  7 1018.5R
KIPTOPEKE VA     0800      62  250/  7/  9   N/A
CHES BAY BRIDGE  0800   57 58  220/ 11/ 12 1017.7R
CAPE HENRY VA    0800   55     230/ 12/ 15 1016.8R
CHESAPEAKE LGHT  0800   54     230/ 13/ 13 1018.8R
WILLOUBY STN VA  0800   56     230/ 10/ 11 1018.8R
S CRANEY ISL VA  0800          230/  4/  6 1018.5R
CAPE HENRY BUOY  0828      52                N/A     5/11   3/11
1ST LANDING BUOY 0900      57                N/A     2/ 5
CAPE CHARLES BUO 0826      54                N/A     5/11   5/11
OFFSHORE WE BUOY 0811      50                N/A     6/10   5/10
64NM E OF VA BCH 0850   52 53  280/  4/  6 1018.7R   7/11   7/11
DUCK PIER NC     0800   56 53  240/  8/ 10 1017.7R
44056 DUCK FRF   0811      54                N/A     6/11   3/11
OREGON INLET NC  0800   55 57  250/  4/  6 1018.8R
HATTERAS NC      0800   59 61  270/  6/  7 1018.6R
DIAMOND SHLS NC  0850   56     300/  4/  6 1019.2    5/11   5/11
CAPE LOOKOUT NC  0900   60     240/  4/  5 1019.4R
$$


USA.gov is the U.S. government's official web portal to all federal, state and local government web resources and services.